Location: Winthrop
(48.4780°N, 120.1850°W)
Time: 00:54:56
(UTC-07:00)

S-56A Canister/Altair - Pass Details

Date: 06 June 2023
Orbit: 640 x 2489 km, 38.9° (Epoch: 29 September)

Event Time Altitude Azimuth Distance (km) Brightness Sun altitude
Rises 01:09:45 0° 271° (W) 5,920 12.0 -18.8°
Reaches altitude 10° 01:13:36 10° 267° (W) 5,034 11.6 -18.8°
Maximum altitude 01:27:39 51° 198° (SSW) 2,918 10.0 -18.6°
Drops below altitude 10° 01:40:37 10° 129° (SE) 4,664 11.2 -18.3°
Sets 01:44:02 0° 124° (SE) 5,470 11.7 -18.2°
